Location: Unspecified
(0.0000°N, 0.0000°E)
Time: 14:36:06
(UTC+00:00)

FALCON 9 R/B - Pass Details

Date: 03 November 2020
Orbit: 485 x 62261 km, 25.4° (Epoch: 27 November)

Event Time Altitude Azimuth Distance (km) Brightness Sun altitude
Rises 01:43:52 0° 71° (ENE) 67,935 ? -56.6°
Reaches altitude 10° 02:37:15 10° 72° (ENE) 65,702 ? -44.5°
Maximum altitude 09:17:02 76° 77° (ENE) 23,055 ? 50.7°
Drops below altitude 10° 10:32:41 10° 117° (ESE) 7,980 ? 66.8°
Sets 10:35:49 0° 117° (ESE) 7,968 ? 67.3°
